Retour au catalogue

STARLINK-11105

ActifCommunicationsVLEO
NORAD 59758·PAYLOAD·🇺🇸 United States

Lancé May 14, 2024 depuis Vandenberg Space Force Base

Loading…

Prochains Passages (prochaines 24 heures)

TLE

FraisSource: CelesTrak SupGP

Époque: Sep 14, 2026, 20:56 UTC

1 59758C 24091F   26257.87270833 -.00005412  00000+0 -44557-4 0  2579
2 59758  53.1568 353.7259 0001128  76.9800   9.9360 15.69726521    12

Suivez STARLINK-11105 en temps réel avec AllMySat

Download on the App Store